Starlink 4442

operational
NORAD ID: 53480 Int'l Des: 2022-099 Owner: SPXS Country: US Constellation: starlink
LEOCIRCULARRETROGRADESSO

Über Starlink 4442

Beschreibung wird geladen...

Live-Position

3D-Globus wird geladen...

Nächste Überflüge

Höhenverlauf

Altitude vs Time

uPlot chart will show altitude changes over time

Zweizeiliger Elementsatz

1 53480U 22099R 25259.27990550 .00000084 00000-0 11039-4 0 9992
2 53480 97.6019 19.4728 0002031 90.1346 270.0111 15.01259852169819
Epoch: 16. Sept. 2025 • Age: 8 hours

Aktueller Status

Höhe 578.8 km
Geschwindigkeit 7.57 km/s
Subsatellitenpunkt -38.96°S, 172.04°E
Startdatum 12. Aug. 2022
Alter 3 years
Typ internet

Technische Details

Klassifizierung Payload
Masse 300.00 kg
Trockenmasse 275.00 kg
Gesamtmasse 300.00 kg
Länge 0.20 m
Durchmesser 2.80 m
Spannweite 9.00 m
Form Box + pan
Hersteller SPXS
Bus-Typ Starlink
Phasenstatus In Orbit
Besitzer/Staat SPXS/US

Große Konstellationen

Loading constellations...